STARLINK-11313, 61255

Orbit data source: Space-Track

STARLINK-11313, 61255 is a payload satellite owned by SpaceX/Seattle (US) in LEO that was launched on Wed, 25 Sep 2024 UTC via an FALCON 9 launch vehicle from the Air Force Western Test Range (AFWTR). Payload-class satellites include a variety of spacecraft equipped with specific instruments for various scientific and technological missions. These include communications satellites like Starlink; space stations such as the ISS; scientific satellites like the Hubble; Earth observation satellites from companies like Planet Labs, Umbra, and HawkEye 360; GPS; miniature CubeSats for education and research; and military/defense satellites.

Loading next visibility...
Identifier
61255, 2024-175N
Orbit
LEO
Last TLE update
19 hours ago
Origin
Manufacturer
SpaceX/Seattle
Mission
Operational Commercial Communications
Bus & Motor
STARLINK V2M, Unknown motor
Mass
730 kg wet, ~700 kg dry
Launch date (UTC)
2024-09-25 (9 months ago)
Launch vehicle
FALCON 9
Launch site
Air Force Western Test Range (AFWTR)
Object type
Payload
Rocket body
Debris
Shape & HBR
Box + 2 Pan, 29 m
Radar Cross Section
36.964 m², Large (>1 m²)

Expand to show TLE details & history

TLE from 19 hours ago
0 STARLINK-11313
1 61255U 24175N   25181.61173502 -.00000128  00000-0  38087-5 0  9993
2 61255  53.1602 218.9943 0001323  97.9756 262.1412 15.69705357 43773
Epoch: 2025-06-30T14:40Z
TLE epoch observation values (Epoch: 2025-06-30T14:40:53.905Z)
Latitude
-0.00004°
Longitude
79.85062°
Altitude
360.777 km
Speed
7.694 km/s
True Right ascension
14h 35m 58s
True Declination
0° 00' 00"
Sunlit
Object was in full shadow at epoch
Visualization orbit readout
Latitude
-53.27033°
Longitude
-10.90928°
Altitude
379.127 km
Speed
7.682 km/s
Apparent Right ascension
09h 14m 28s
Apparent Declination
-46° 59' 32"
Sunlit
Object is in daylight
Visualization observer readout
Local Sidereal Time
21:48:44
Azimuth
141.57° SSE
Elevation
-80.591°
Doppler factor
1
Orbital elements
Apogee altitude
360.892 km
Perigee altitude
359.109 km
Semi-major axis
6,738.138 km
Eccentricity
0.00013
Inclination
53.1602°
RAAN
218.9943°
Arg. of periapsis
97.9756°
True anomaly
Unknown
Mean anomaly
262.1412°
Eccentric anomaly
Unknown
Mean motion
3.92404 °/min
Orbital period
91.74 mins
BSTAR
0.0000038087
Loading maneuver chart data...
Loading SW <> Apogee altitude chart data...
Loading historical data...
Loading historical data...
Loading historical data...
Loading historical data...
Loading historical data...
Loading historical data...
Loading historical data...

STARLINK-11313 Visibility forecast

Observer location: undefined°, undefined°

Span
Click to sort rows by Start time (UTC) header in descending order
Start Az.
Max El. time (UTC)
Max El. Az.
Max El.
End time (UTC)
End Az.
4 mins2025-07-01 11:00:20.070Z338.034° N2025-07-01 11:02:20.070Z24.027° NE20.242°2025-07-01 11:04:20.070Z75.758° E
4 mins2025-07-01 12:36:20.070Z280.506° WNW2025-07-01 12:38:20.070Z205.684° SW28.141°2025-07-01 12:40:20.070Z160.963° S
4 mins2025-07-02 05:05:20.070Z241.362° WSW2025-07-02 05:07:20.070Z19.369° NNE39.537°2025-07-02 05:09:20.070Z44.894° NE
|